Tracking 20040 objects as of 19-Nov-2019
Live streaming from Space Station
objects crossing your sky now

THORAD AGENA D DEB

Track THORAD AGENA D DEB now!
10-day predictions


NORAD ID: 4218
Int'l Code: 1969-082CH
Perigee: 713.8 km
Apogee: 768.2 km
Inclination: 70.1 °
Period: 99.5 minutes
Semi major axis: 7112 km
RCS: 0.0624 m2 (small)
Launch date: September 30, 1969
Source: United States (US)
Launch site: AIR FORCE WESTERN TEST RANGE (AFWTR)

Note: This is SATELLITE DEBRIS
aabbcc
Your satellite tracking list
Your tracking list is empty




NASA's NSSDC Master Catalog

Two Line Element Set (TLE):
1  4218U 69082CH  19322.72783486  .00000270  00000-0  89360-4 0  9991
2  4218  70.1021  66.9614 0038294 167.8580 192.3486 14.47488525610672
Source of the keplerian elements: AFSPC